�N����,����,�~����,�C��,���x,�C��,����,���ϕ���,�ő�u�ԕ���,�ő厞����,���˗�,�I�_���x,�n�����x,�ő啗���N��,DTYPE
"18/11/05","00:10",0.0,13.1,92.2,1016.1,330.1,2.7,4.4,347.7,0.00,11.9,15.0,"00:08:56",1
"18/11/05","00:20",0.0,12.9,92.4,1015.9,328.6,3.1,4.0,337.7,0.00,11.7,15.0,"00:15:20",1
"18/11/05","00:30",0.0,12.8,92.6,1015.6,330.1,2.6,4.0,338.2,0.00,11.7,15.2,"00:28:24",1
"18/11/05","00:40",0.0,12.7,92.8,1016.1,334.6,2.1,3.1,340.3,0.00,11.6,15.2,"00:34:08",1
"18/11/05","00:50",0.0,12.6,93.2,1015.9,328.5,2.2,3.7,337.8,0.00,11.6,14.9,"00:48:02",1
"18/11/05","01:00",0.0,12.7,93.1,1016.1,330.9,2.3,4.0,338.8,0.00,11.7,15.0,"00:50:24",1
"18/11/05","01:10",0.0,12.5,93.0,1016.4,332.7,2.0,3.6,319.1,0.00,11.4,15.0,"01:01:44",1
"18/11/05","01:20",0.0,12.6,93.4,1016.1,326.8,2.5,4.1,336.5,0.00,11.6,14.9,"01:16:52",1
"18/11/05","01:30",0.0,12.6,93.5,1015.9,324.1,2.2,3.4,330.1,0.00,11.6,14.9,"01:23:04",1
"18/11/05","01:40",0.0,12.7,93.4,1016.4,323.9,3.0,5.0,343.4,0.00,11.7,14.9,"01:31:36",1
"18/11/05","01:50",0.0,12.6,93.5,1016.1,322.1,2.6,4.3,320.2,0.00,11.6,14.9,"01:46:40",1
"18/11/05","02:00",0.0,12.6,93.4,1016.1,309.3,2.2,3.6,337.5,0.00,11.6,14.9,"01:54:48",1
"18/11/05","02:10",0.0,12.5,93.6,1016.1,321.5,2.6,5.5,339.3,0.00,11.5,14.8,"02:07:36",1
"18/11/05","02:20",0.0,12.5,93.7,1015.9,326.6,3.2,5.7,336.0,0.00,11.6,15.1,"02:13:06",1
"18/11/05","02:30",0.0,12.6,93.6,1015.9,324.5,3.2,4.9,329.3,0.00,11.6,14.8,"02:29:30",1
"18/11/05","02:40",0.0,12.5,93.5,1015.6,322.6,3.0,6.2,345.7,0.00,11.5,14.8,"02:36:10",1
"18/11/05","02:50",0.0,12.4,93.5,1015.9,318.1,2.2,4.0,309.4,0.00,11.4,14.9,"02:45:52",1
"18/11/05","03:00",0.0,12.3,93.6,1015.6,335.6,2.6,4.2,344.1,0.00,11.3,15.0,"02:52:10",1
"18/11/05","03:10",0.0,12.2,93.7,1015.6,327.2,3.1,5.2,336.1,0.00,11.3,14.8,"03:05:10",1
"18/11/05","03:20",0.0,12.1,93.6,1015.4,325.1,2.3,4.0,327.0,0.00,11.1,14.8,"03:14:36",1
"18/11/05","03:30",0.0,12.0,93.5,1015.9,327.9,2.3,4.0,333.0,0.00,11.0,14.8,"03:25:42",1
"18/11/05","03:40",0.0,12.0,94.0,1015.6,328.6,3.1,4.5,321.6,0.00,11.1,14.6,"03:39:54",1
"18/11/05","03:50",0.0,11.9,93.9,1015.6,329.3,3.5,5.0,327.7,0.00,11.0,14.7,"03:45:28",1
"18/11/05","04:00",0.0,11.7,94.2,1015.6,329.9,3.7,5.4,334.8,0.00,10.8,14.6,"03:52:24",1
"18/11/05","04:10",0.0,11.6,94.3,1015.9,332.4,3.1,5.4,334.2,0.00,10.8,14.6,"04:02:28",1
"18/11/05","04:20",0.0,11.7,94.7,1015.6,326.9,3.5,6.5,338.8,0.00,10.9,14.6,"04:18:56",1
"18/11/05","04:30",0.0,11.7,94.8,1015.9,328.3,2.6,4.3,324.2,0.00,10.9,14.6,"04:22:20",1
"18/11/05","04:40",0.0,11.7,95.1,1015.9,328.9,2.6,4.3,313.7,0.00,11.0,14.4,"04:32:40",1
"18/11/05","04:50",0.0,11.8,95.1,1016.1,333.8,2.5,3.9,334.7,0.00,11.1,14.5,"04:45:32",1
"18/11/05","05:00",0.0,11.7,95.1,1015.9,334.9,2.2,3.9,322.1,0.00,11.0,14.2,"04:57:34",1
"18/11/05","05:10",0.0,11.7,95.1,1015.9,333.6,2.2,4.3,339.1,0.00,11.0,14.4,"05:02:38",1
"18/11/05","05:20",0.0,11.7,95.4,1016.4,333.2,2.6,5.2,340.3,0.00,11.0,14.2,"05:19:10",1
"18/11/05","05:30",0.0,11.7,95.4,1016.4,330.7,2.8,4.1,336.2,0.00,11.0,14.4,"05:24:50",1
"18/11/05","05:40",0.0,11.7,95.4,1016.1,326.8,2.6,4.3,332.8,0.00,11.0,14.1,"05:32:10",1
"18/11/05","05:50",0.0,11.8,95.5,1016.1,328.0,3.0,4.7,343.6,0.00,11.1,14.2,"05:48:48",1
"18/11/05","06:00",0.0,11.9,95.5,1016.4,326.5,3.1,5.6,331.2,0.00,11.2,14.2,"05:56:56",1
"18/11/05","06:10",0.0,11.8,95.5,1016.1,327.2,2.6,4.1,303.1,0.00,11.1,14.2,"06:02:14",1
"18/11/05","06:20",0.0,11.7,95.6,1016.4,334.1,2.2,3.7,343.4,0.00,11.1,14.1,"06:17:54",1
"18/11/05","06:30",0.0,11.6,95.6,1016.4,332.8,3.1,5.1,337.4,0.00,11.0,14.3,"06:28:34",1
"18/11/05","06:40",0.0,11.7,95.6,1016.4,326.1,3.4,6.2,320.2,0.00,11.1,14.4,"06:38:16",1
"18/11/05","06:50",0.0,11.6,95.7,1016.6,330.2,3.4,5.9,322.2,0.00,11.0,14.1,"06:42:04",1
"18/11/05","07:00",0.0,11.6,95.6,1016.4,331.3,3.4,5.8,340.4,0.00,11.0,14.3,"06:56:04",1
"18/11/05","07:10",0.0,11.6,95.8,1016.6,327.0,4.0,7.0,340.2,0.00,11.0,14.1,"07:07:34",1
"18/11/05","07:20",0.0,11.7,95.8,1017.1,328.5,4.0,6.4,336.9,0.00,11.1,14.2,"07:17:40",1
"18/11/05","07:30",0.0,11.8,95.8,1017.1,329.4,4.0,7.9,329.6,0.01,11.2,14.0,"07:22:10",1
"18/11/05","07:40",0.0,11.7,95.7,1016.8,331.6,3.2,5.5,338.3,0.01,11.1,14.0,"07:31:44",1
"18/11/05","07:50",0.0,11.7,95.5,1017.3,331.6,3.4,5.2,329.5,0.01,11.0,14.2,"07:46:32",1
"18/11/05","08:00",0.0,11.8,95.6,1017.5,332.2,3.2,6.0,336.1,0.02,11.2,14.1,"07:52:32",1
"18/11/05","08:10",0.0,12.3,94.4,1017.3,330.0,2.2,4.0,334.3,0.05,11.5,14.2,"08:03:12",1
"18/11/05","08:20",0.0,12.6,93.6,1017.3,327.0,2.5,4.9,341.4,0.07,11.6,14.4,"08:14:48",1
"18/11/05","08:30",0.0,12.5,93.5,1017.5,325.6,2.1,3.6,326.0,0.04,11.5,14.2,"08:22:48",1
"18/11/05","08:40",0.0,12.8,93.1,1017.3,327.6,2.6,3.6,326.1,0.09,11.8,14.2,"08:30:56",1
"18/11/05","08:50",0.0,13.4,92.3,1017.5,327.0,3.0,4.4,334.7,0.14,12.2,14.4,"08:40:40",1
"18/11/05","09:00",0.0,13.6,90.9,1017.8,309.2,2.0,3.4,322.0,0.11,12.2,14.6,"08:51:28",1
"18/11/05","09:10",0.0,13.6,90.1,1017.8,297.3,1.6,3.2,324.0,0.08,12.0,14.6,"09:02:56",1
"18/11/05","09:20",0.0,14.0,89.2,1017.8,291.4,1.5,2.7,340.9,0.12,12.3,14.6,"09:19:44",1
"18/11/05","09:30",0.0,14.7,88.3,1017.8,313.5,2.0,3.3,351.0,0.17,12.8,14.8,"09:25:44",1
"18/11/05","09:40",0.0,14.9,87.2,1017.8,315.7,2.0,4.0,334.6,0.17,12.8,15.0,"09:34:48",1
"18/11/05","09:50",0.0,15.8,85.3,1017.5,306.7,1.3,3.1,338.9,0.25,13.4,15.2,"09:49:20",1
"18/11/05","10:00",0.0,16.5,84.1,1017.1,289.1,1.3,2.7,329.8,0.29,13.8,15.2,"09:58:24",1
"18/11/05","10:10",0.0,16.2,82.2,1017.3,274.0,1.1,2.0,276.7,0.32,13.2,15.6,"10:01:12",1
"18/11/05","10:20",0.0,17.2,82.1,1017.3,269.0,1.2,2.4,270.4,0.35,14.2,15.8,"10:11:28",1
"18/11/05","10:30",0.0,17.3,78.5,1016.8,294.4,1.7,3.3,340.1,0.37,13.6,16.1,"10:20:02",1
"18/11/05","10:40",0.0,17.6,76.4,1017.1,289.4,1.3,2.6,309.7,0.32,13.4,16.3,"10:30:08",1
"18/11/05","10:50",0.0,17.9,75.7,1016.4,273.7,1.3,3.3,335.2,0.29,13.6,16.3,"10:40:02",1
"18/11/05","11:00",0.0,17.9,74.1,1016.4,291.1,1.5,3.3,329.0,0.30,13.3,16.4,"10:51:36",1
"18/11/05","11:10",0.0,18.0,74.8,1016.6,282.0,0.8,2.4,328.2,0.22,13.5,16.6,"11:06:56",1
"18/11/05","11:20",0.0,18.3,72.8,1016.4,322.2,1.0,2.1,335.9,0.22,13.4,16.8,"11:15:52",1
"18/11/05","11:30",0.0,18.6,72.6,1016.1,319.7,1.3,3.3,342.0,0.21,13.6,17.1,"11:20:08",1
"18/11/05","11:40",0.0,18.6,72.2,1015.6,292.8,0.8,2.1,342.2,0.19,13.5,17.2,"11:31:12",1
"18/11/05","11:50",0.0,18.9,70.9,1015.9,284.0,0.5,1.1,212.5,0.18,13.5,17.4,"11:42:32",1
"18/11/05","12:00",0.0,18.7,72.1,1015.6,142.0,0.5,1.3,121.2,0.15,13.6,17.4,"11:58:16",1
"18/11/05","12:10",0.0,19.0,71.1,1015.4,200.3,0.5,1.1,130.6,0.18,13.7,17.6,"12:00:48",1
"18/11/05","12:20",0.0,19.5,70.9,1015.4,185.9,0.8,2.4,199.1,0.22,14.1,17.7,"12:17:36",1
"18/11/05","12:30",0.0,20.4,69.6,1014.9,230.1,0.7,2.1,240.9,0.39,14.7,18.0,"12:26:40",1
"18/11/05","12:40",0.0,21.5,67.0,1014.2,227.7,1.0,2.2,234.1,0.47,15.2,18.1,"12:31:12",1
"18/11/05","12:50",0.0,21.2,64.2,1014.2,265.6,0.8,1.9,236.2,0.46,14.2,18.7,"12:42:40",1
"18/11/05","13:00",0.0,21.8,64.9,1014.0,235.1,1.2,3.4,189.2,0.43,14.9,18.7,"12:59:20",1
"18/11/05","13:10",0.0,21.0,65.4,1013.8,178.7,1.2,3.3,108.3,0.32,14.3,18.9,"13:07:36",1
"18/11/05","13:20",0.0,21.3,67.1,1013.8,220.3,1.7,3.6,229.2,0.26,15.0,19.2,"13:15:52",1
"18/11/05","13:30",0.0,21.3,65.9,1013.5,252.8,1.1,3.1,217.4,0.25,14.7,19.0,"13:20:56",1
"18/11/05","13:40",0.0,22.4,66.4,1013.0,233.8,1.1,2.2,324.1,0.43,15.9,19.5,"13:30:32",1
"18/11/05","13:50",0.0,22.5,65.0,1013.5,178.3,1.0,2.6,202.8,0.39,15.6,19.6,"13:40:24",1
"18/11/05","14:00",0.0,22.4,64.1,1012.6,215.2,0.8,2.4,224.0,0.36,15.3,19.7,"13:55:04",1
"18/11/05","14:10",0.0,22.0,64.2,1013.0,42.2,0.8,2.0,67.1,0.26,15.0,19.7,"14:05:36",1
"18/11/05","14:20",0.0,22.3,63.5,1012.8,8.0,0.8,2.1,2.6,0.22,15.1,19.7,"14:14:24",1
"18/11/05","14:30",0.0,22.5,63.9,1012.8,331.0,1.1,2.9,350.4,0.30,15.4,19.9,"14:24:08",1
"18/11/05","14:40",0.0,22.2,64.1,1012.8,265.3,0.7,1.8,126.7,0.17,15.1,20.0,"14:31:28",1
"18/11/05","14:50",0.0,23.0,63.6,1012.6,264.2,0.8,2.8,224.6,0.24,15.8,20.2,"14:40:02",1
"18/11/05","15:00",0.0,22.4,62.7,1012.3,216.4,1.5,3.2,223.8,0.22,15.0,20.3,"14:53:28",1
"18/11/05","15:10",0.0,22.1,64.4,1012.6,140.6,0.6,1.7,350.3,0.10,15.1,20.0,"15:08:48",1
"18/11/05","15:20",0.0,22.2,63.9,1012.8,177.1,1.1,3.7,227.1,0.18,15.1,20.0,"15:18:00",1
"18/11/05","15:30",0.0,22.0,64.4,1012.6,169.3,1.2,2.2,165.5,0.13,15.0,20.1,"15:23:52",1
"18/11/05","15:40",0.0,21.6,66.1,1012.8,143.9,1.5,3.2,119.1,0.12,15.0,19.9,"15:31:36",1
"18/11/05","15:50",0.0,21.4,66.9,1013.3,148.0,1.3,2.5,125.5,0.09,15.0,20.0,"15:43:04",1
"18/11/05","16:00",0.0,21.6,67.1,1012.8,172.0,1.0,2.5,208.5,0.08,15.3,19.9,"15:58:16",1
"18/11/05","16:10",0.0,21.5,66.2,1012.8,144.8,1.0,3.2,105.3,0.05,15.0,19.8,"16:01:36",1
"18/11/05","16:20",0.0,21.4,66.4,1013.0,188.2,0.6,1.7,131.9,0.04,14.9,19.6,"16:12:24",1
"18/11/05","16:30",0.0,21.3,66.4,1013.3,275.2,0.7,1.8,291.3,0.03,14.8,19.5,"16:27:28",1
"18/11/05","16:40",0.0,21.2,67.5,1013.0,281.8,1.0,1.8,265.4,0.02,15.0,19.6,"16:36:40",1
"18/11/05","16:50",0.0,20.9,69.5,1013.3,276.3,1.1,2.2,312.2,0.00,15.2,19.5,"16:47:04",1
"18/11/05","17:00",0.0,20.4,71.6,1013.5,291.2,0.7,1.2,286.8,0.00,15.1,19.4,"16:52:56",1
"18/11/05","17:10",0.0,20.3,72.1,1013.5,40.8,1.0,2.8,343.5,0.00,15.2,19.2,"17:03:04",1
"18/11/05","17:20",0.0,20.4,71.2,1013.3,80.6,0.7,2.1,106.3,0.00,15.1,19.2,"17:11:36",1
"18/11/05","17:30",0.0,20.0,72.2,1013.8,301.6,0.6,1.3,317.0,0.00,14.9,19.1,"17:21:20",1
"18/11/05","17:40",0.0,19.6,73.6,1013.8,300.6,0.7,1.1,321.4,0.00,14.8,19.0,"17:32:24",1
"18/11/05","17:50",0.0,19.4,75.5,1014.0,311.5,1.2,2.2,326.4,0.00,15.0,18.8,"17:45:20",1
"18/11/05","18:00",0.0,19.0,77.7,1014.0,300.5,0.5,1.0,326.7,0.00,15.1,18.8,"17:57:20",1
"18/11/05","18:10",0.0,18.7,79.9,1014.2,282.5,0.6,1.3,318.6,0.00,15.2,18.7,"18:04:56",1
"18/11/05","18:20",0.0,18.5,81.2,1014.7,301.7,0.7,1.6,326.1,0.00,15.3,18.5,"18:19:12",1
"18/11/05","18:30",0.0,18.3,82.0,1014.5,312.8,1.0,1.4,331.8,0.00,15.2,18.6,"18:20:32",1
"18/11/05","18:40",0.0,18.1,82.8,1014.9,291.3,0.6,1.2,315.9,0.00,15.2,18.4,"18:36:24",1
"18/11/05","18:50",0.0,18.1,83.6,1015.2,299.2,0.7,1.0,328.8,0.00,15.3,18.3,"18:46:08",1
"18/11/05","19:00",0.0,18.0,83.7,1014.9,314.9,0.7,1.3,316.1,0.00,15.2,18.2,"18:53:20",1
"18/11/05","19:10",0.0,17.7,84.3,1014.5,295.7,0.6,0.9,288.3,0.00,15.1,18.1,"19:02:56",1
"18/11/05","19:20",0.0,17.5,85.5,1014.7,272.2,0.6,1.0,247.1,0.00,15.1,18.1,"19:16:32",1
"18/11/05","19:30",0.0,17.5,85.4,1015.2,290.1,0.8,1.1,316.2,0.00,15.1,18.2,"19:28:56",1
"18/11/05","19:40",0.0,17.6,85.5,1015.2,296.7,1.0,2.1,336.4,0.00,15.2,18.0,"19:37:12",1
"18/11/05","19:50",0.0,17.5,85.1,1014.9,298.2,1.2,2.0,309.5,0.00,15.0,18.0,"19:47:44",1
"18/11/05","20:00",0.0,17.3,85.5,1014.9,285.4,1.0,2.1,312.4,0.00,14.9,18.0,"19:50:08",1
"18/11/05","20:10",0.0,17.0,85.7,1015.2,266.5,1.0,2.0,243.4,0.00,14.6,17.8,"20:04:00",1
"18/11/05","20:20",0.0,17.0,86.3,1015.4,321.5,1.0,1.7,323.1,0.00,14.7,17.7,"20:14:40",1
"18/11/05","20:30",0.0,16.7,86.5,1015.2,317.0,0.8,1.3,334.6,0.00,14.5,17.5,"20:25:20",1
"18/11/05","20:40",0.0,16.4,87.9,1015.6,317.2,0.8,1.2,322.4,0.00,14.4,17.5,"20:36:56",1
"18/11/05","20:50",0.0,16.2,88.6,1015.4,292.3,0.8,2.6,312.3,0.00,14.4,17.4,"20:42:32",1
"18/11/05","21:00",0.0,16.2,89.4,1015.6,312.3,1.1,2.0,325.3,0.00,14.5,17.4,"20:59:12",1
"18/11/05","21:10",0.0,16.4,89.1,1015.6,322.5,1.1,2.0,333.0,0.00,14.6,17.3,"21:02:32",1
"18/11/05","21:20",0.0,16.5,89.2,1015.6,313.7,1.5,2.2,319.3,0.00,14.8,17.2,"21:14:00",1
"18/11/05","21:30",0.0,16.7,88.6,1015.6,328.1,2.0,3.9,339.0,0.00,14.8,17.3,"21:29:36",1
"18/11/05","21:40",0.0,16.9,87.2,1015.4,327.7,2.2,3.4,327.3,0.00,14.8,17.2,"21:39:28",1
"18/11/05","21:50",0.0,16.9,86.2,1015.6,329.9,2.2,3.9,343.2,0.00,14.6,17.2,"21:49:36",1
"18/11/05","22:00",0.0,16.8,84.8,1015.6,331.6,2.6,4.5,321.9,0.00,14.3,17.2,"21:56:32",1
"18/11/05","22:10",0.0,16.7,84.8,1015.6,332.5,2.1,4.4,327.0,0.00,14.2,17.0,"22:00:56",1
"18/11/05","22:20",0.0,16.7,84.8,1015.6,333.2,1.8,3.1,328.9,0.00,14.2,17.0,"22:14:00",1
"18/11/05","22:30",0.0,16.7,84.6,1015.9,333.8,2.3,3.3,342.0,0.00,14.1,17.2,"22:24:16",1
"18/11/05","22:40",0.0,16.8,84.5,1015.6,325.8,1.6,3.3,306.9,0.00,14.2,17.0,"22:31:28",1
"18/11/05","22:50",0.0,16.7,84.9,1015.6,332.5,2.0,3.2,337.7,0.00,14.2,17.1,"22:42:56",1
"18/11/05","23:00",0.0,16.7,84.7,1015.6,329.9,2.1,3.2,338.4,0.00,14.2,17.1,"22:56:16",1
"18/11/05","23:10",0.0,16.6,84.6,1015.6,331.2,2.2,3.6,340.1,0.00,14.0,17.1,"23:03:20",1
"18/11/05","23:20",0.0,16.6,85.0,1015.6,328.2,2.8,4.4,320.2,0.00,14.1,17.1,"23:18:16",1
"18/11/05","23:30",0.0,16.5,85.3,1015.4,330.5,2.2,4.1,336.7,0.00,14.1,17.2,"23:24:56",1
"18/11/05","23:40",0.0,16.5,85.1,1015.2,335.4,2.6,3.6,335.9,0.00,14.0,17.1,"23:37:36",1
"18/11/05","23:50",0.0,16.5,84.6,1015.4,330.8,2.6,4.2,335.3,0.00,13.9,17.0,"23:42:24",1
"18/11/05","24:00",0.0,16.4,84.6,1015.6,335.6,1.8,3.2,331.4,0.00,13.8,16.9,"23:51:04",1
